Regional Weather Roundup
Issued by NWS Jackson, KY

Home | Current Version | Previous Version | Graphics & Text | Print | Product List | Glossary On
Versions: 1 2 3 4 5 6 7 8 9 10 11 12 13 14 15 16 17 18 19 20 21 22 23 24 25 26 27 28 29 30 31 32 33 34 35 36 37 38 39 40 41 42 43 44 45 46 47 48 49 50
000
ASUS43 KJKL 262210
RWRJKL

EAST KENTUCKY HOURLY WEATHER ROUNDUP
NATIONAL WEATHER SERVICE JACKSON KY
600 PM EDT THU MAY 26 2016

NOTE: "FAIR" INDICATES FEW OR NO CLOUDS BELOW 12,000 FEET WITH
NO SIGNIFICANT WEATHER AND/OR OBSTRUCTIONS TO VISIBILITY.

* THESE REPORTS ARE NOT UNDER NWS QUALITY CONTROL AND MAY NOT
  REPORT WEATHER SUCH AS PRECIPITATION AND FOG.

KYZ079-080-083-085-087-088-110-112-115-119-120-262300
...EASTERN KENTUCKY...

CITY           SKY/WX    TMP DP  RH WIND       PRES   REMARKS
JACKSON        SUNNY     76  63  64 VRB6      30.09F
LONDON         PTSUNNY   79  63  57 SW10G21   30.11R
SOMERSET*      TSTM      64  63  94 CALM      30.15R
MONTICELLO*    LGT RAIN  66  64  94 N10       30.15F
WILLIAMSBURG*  PTCLDY    75  64  69 NW17G24   30.13R
MIDDLESBORO*   SUNNY     79  64  60 SE3       30.11F
HARLAN APT*    CLOUDY    73  63  68 CALM      30.13F
HAZARD APT*    CLEAR     77  64  65 S8        30.10F
BLACK MTN*       N/A     66  61  82 SW3         N/A
PIKE CO APT*     N/A     76  64  66 CALM      30.11F
BIG SANDY APT* PTCLDY    79  64  60 S5        30.09F
MOREHEAD APT*  CLOUDY    77  66  69 S7G13     30.07F
ASHLAND*       MOSUNNY   81  70  69 SW7       30.02F
$$

KYZ035-036-041-042-044-050-067-078-099-262300
...CENTRAL KENTUCKY...

CITY           SKY/WX    TMP DP  RH WIND       PRES   REMARKS
MT STERLING*   LGT RAIN N/A N/A N/A SW7       30.09R
FLEMING/MASON* CLOUDY   N/A N/A N/A S3        30.05F
DANVILLE*      LGT RAIN  64  63  94 W6        30.11F
RICHMOND*      CLOUDY    66  63  88 W7        30.09R
LEXINGTON      LGT RAIN  67  65  93 S8        30.06F
FRANKFORT      LGT RAIN  68  64  87 S10       30.02F
LOUISVILLE     CLOUDY    69  64  84 SE8       30.00R
GLASGOW*       RAIN      65  65 100 CALM      30.08F
BOWLING GREEN  TSTM      67  65  93 E7        30.08S
$$

KYZ091>093-OHZ055-061-077-WVZ005-015-034-035-042-262300
...SOUTHERN OHIO/WEST VIRGINIA...

CITY           SKY/WX    TMP DP  RH WIND       PRES   REMARKS
COVINGTON      CLOUDY    70  67  90 S8        30.02R
COLUMBUS       CLOUDY    78  65  63 S8        29.98F
DAYTON         CLOUDY    78  67  68 S15G22    29.99R
WILMINGTON     LGT RAIN  74  68  81 S16G24    29.98S
HUNTINGTON       N/A     80  66  62 SE7       30.04F
CHARLESTON       N/A     78  63  59 W9        30.07F
PINEVILLE*       N/A     74  59  59 MISG      30.19S
BECKLEY          N/A     70  61  73 SW6       30.16F
BLUEFIELD        N/A     72  59  63 VRB7      30.18F
LOGAN CO APT*    N/A     75  63  64 CALM      30.11F
$$

VAZ002-007-008-TNZ017-027-036-066-071-262300
...SOUTHWEST VIRGINIA/EAST TENNESSEE...

CITY           SKY/WX    TMP DP  RH WIND       PRES   REMARKS
WISE*            N/A     73  55  53 W6        30.19S
JONESVILLE*      N/A     75  64  69 CALM      30.15F
ABINGDON*        N/A     74  64  71 CALM      30.16S
BRISTOL        CLOUDY    74  63  68 NW6       30.14S
SEVIERVILLE*   CLEAR     81  63  54 NE8       30.08S
KNOXVILLE      MOSUNNY   83  61  47 CALM      30.07F
OAK RIDGE      SUNNY     82  61  48 VRB5      30.09F
CROSSVILLE     MOSUNNY   80  60  50 VRB6      30.12F
NASHVILLE      CLOUDY    73  64  73 NE18G28   30.04R
$$

...KEY TO REMARKS...
VSB - VISIBILITY IN MILES
WCI - WIND CHILL INDEX
HX  - HEAT INDEX

$$



USA.gov is the U.S. government's official web portal to all federal, state and local government web resources and services.